Regional Weather Roundup
Issued by NWS

Home | Current Version | Previous Version | Graphics & Text | Print | Product List | Glossary On
Versions: 1 2 3 4 5 6 7 8 9 10 11 12 13 14 15 16 17 18 19 20 21 22 23 24 25 26 27 28 29 30 31 32 33 34 35 36 37 38 39 40 41 42 43 44 45 46 47 48 49 50
000
ASUS45 KSLC 191410
RWRUT

UTAH REGIONAL WEATHER ROUNDUP
NATIONAL WEATHER SERVICE SALT LAKE CITY UT
700 AM MST FRI DEC 19 2014

UTZ001>011-023>025-191500-

NORTHERN UTAH

CITY           SKY/WX    TMP DP  RH WIND       PRES   REMARKS
BRIGHAM CITY   CLOUDY    32  29  87 CALM      30.19S
HILL AFB       CLOUDY    31  23  72 SE9       30.18S WCI  23
LOGAN          CLOUDY    30  27  88 CALM      30.18R
OGDEN          CLOUDY    32  24  72 S8        30.18R WCI  25
PROVO AIRPORT  PTCLDY    27  21  80 N3        30.23R
SALT LAKE CITY PTCLDY    33  27  78 SE12      30.19R WCI  24
VERNAL         CLOUDY    27  23  85 SE5       30.26R WCI  22
WENDOVER       CLOUDY    25  23  93 CALM      30.17S
HEBER CITY     CLEAR     19  16  86 E3        30.22S THUNDER
WEST JORDAN    CLEAR     30  30 100 S8        30.20R WCI  23

$$

UTZ012>022-026-027-191500-

SOUTHERN/CENTRAL UTAH

CITY           SKY/WX    TMP DP  RH WIND       PRES   REMARKS
BLANDING       CLEAR     23  21  94 CALM      30.30R
BRYCE CANYON   PTCLDY     8   5  87 W12       30.22R WCI  -7
CEDAR CITY     CLEAR     19  16  88 CALM      30.20R
DELTA          CLOUDY    24  22  93 NE5       30.21R WCI  18
MILFORD        MOCLDY    27  22  81 S5        30.19R WCI  22
MOAB/CYNLANDS  MOCLDY    31  30  96 CALM      30.23R
PRICE          CLEAR     20  14  77 NE3       30.21R
ST GEORGE      CLOUDY    36  28  75 N3        30.28R
KANAB            N/A     28  27  93 NW6       30.30R WCI  22

$$

REGIONAL REPORTS     COLORADO/ARIZONA

CITY           SKY/WX    TMP DP  RH WIND       PRES   REMARKS
CRAIG, CO      CLOUDY    24  19  81 W3        30.23R HAZE
GRAND JUNCTION CLOUDY    31  28  89 CALM      30.24R
RIFLE          CLOUDY    29  22  75 E5        30.22S WCI  24
MONTROSE       CLOUDY    29  23  78 S6        30.25R WCI  23
CORTEZ         CLEAR     17  15  92 NE3       30.24R
PAGE, AZ       CLEAR     34  27  75 SW3       30.25R HAZE
GRAND CANYON   PTCLDY    16  13  88 E3        30.25R
KINGMAN        CLEAR     31  27  85 E5        30.22S WCI  26
FLAGSTAFF      PTCLDY    11   7  84 CALM      30.22R

$$

REGIONAL REPORTS    NEVADA/IDAHO/WYOMING

CITY           SKY/WX    TMP DP  RH WIND       PRES   REMARKS
LAS VEGAS, NV  PTCLDY    41  35  79 SW6       30.20R
ELY            MOCLDY    18  15  88 S9        30.19R WCI   7
ELKO           CLOUDY    27  24  89 CALM      30.14R
POCATELLO, ID  MOCLDY    37  29  72 S15       30.12R WCI  28
BURLEY         CLOUDY    40  25  55 S15       30.09S WCI  32
EVANSTON, WY   CLOUDY    21  19  92 SW13      30.15S WCI   9
ROCK SPRINGS   CLOUDY    21  16  81 SW15      30.14S WCI   8
KEMMERER       CLOUDY    23  21  93 SW6       30.13S WCI  16

$$


USA.gov is the U.S. government's official web portal to all federal, state and local government web resources and services.